Starlink 2705

operational
NORAD ID: 48672 Int'l Des: 2021-044 Owner: SPXS Country: US Constellation: starlink
LEOCIRCULARSTARLINK_TYPE

About Starlink 2705

Description loading...

Live Position

Loading 3D Globe...

Upcoming Passes

Altitude History

Altitude vs Time

uPlot chart will show altitude changes over time

Two-Line Element Set

1 48672U 21044AL 25350.68792564 .00001154 00000-0 96369-4 0 9998
2 48672 53.0556 124.2276 0001161 94.0819 266.0302 15.06398130251336
Epoch: Dec 16, 2025 • Age: 15 hours

Current Status

Altitude 551.0 km
Velocity 7.59 km/s
Sub-Earth Point -13.74°S, 110.04°E
Launch Date May 26, 2021
Age 4.5 years
Type internet

Technical Details

Classification Payload
Mass 260.00 kg
Dry Mass 248.00 kg
Total Mass 260.00 kg
Length 0.20 m
Diameter 2.80 m
Span 9.00 m
Shape Box + pan
Manufacturer SPXS
Bus Type Starlink
Phase Status In Orbit
Owner/State SPXS/US

Large Constellations

Loading constellations...